| time (UTC) | temp F | wind direction | speed MPH | gust MPH | rain 1hr in | rain 24hr in | rain mn in | humidity % | barometer mb |
| 20260505192140 | 80 | 246 | 9.0 | 12.0 | 0.00 | 0.00 | 0.00 | 78 | 1008.0 |
| 20260505191639 | 80 | 202 | 4.0 | 5.0 | 0.00 | 0.00 | 0.00 | 79 | 1008.1 |
| 20260505191136 | 80 | 198 | 10.0 | 12.0 | 0.00 | 0.00 | 0.00 | 79 | 1008.1 |
| 20260505190632 | 80 | 165 | 8.0 | 12.0 | 0.00 | 0.00 | 0.00 | 78 | 1008.2 |
| 20260505190127 | 81 | 216 | 7.0 | 10.0 | 0.00 | 0.00 | 0.00 | 78 | 1008.4 |
| 20260505185624 | 79 | 172 | 4.0 | 5.0 | 0.00 | 0.00 | 0.00 | 81 | 1008.2 |
| 20260505185120 | 79 | 184 | 4.0 | 5.0 | 0.00 | 0.00 | 0.00 | 80 | 1008.2 |
| 20260505184617 | 79 | 243 | 11.0 | 15.0 | 0.00 | 0.00 | 0.00 | 79 | 1008.3 |
| 20260505184114 | 78 | 234 | 5.0 | 7.0 | 0.00 | 0.00 | 0.00 | 82 | 1008.7 |
| 20260505183610 | 78 | 227 | 12.0 | 14.0 | 0.00 | 0.00 | 0.00 | 81 | 1008.7 |
| 20260505183108 | 77 | 223 | 4.0 | 5.0 | 0.00 | 0.00 | 0.00 | 83 | 1008.8 |
| 20260505182604 | 77 | 164 | 5.0 | 7.0 | 0.00 | 0.00 | 0.00 | 83 | 1008.9 |
| 20260505182101 | 77 | 235 | 7.0 | 9.0 | 0.00 | 0.00 | 0.00 | 82 | 1008.8 |
| 20260505181558 | 77 | 169 | 4.0 | 7.0 | 0.00 | 0.00 | 0.00 | 83 | 1008.6 |
| 20260505181055 | 77 | 213 | 13.0 | 17.0 | 0.00 | 0.00 | 0.00 | 82 | 1008.5 |
| 20260505180550 | 77 | 183 | 6.0 | 10.0 | 0.00 | 0.00 | 0.00 | 82 | 1008.4 |
| 20260505180049 | 77 | 192 | 6.0 | 9.0 | 0.00 | 0.00 | 0.00 | 83 | 1008.7 |
| 20260505175549 | 78 | 232 | 14.0 | 15.0 | 0.00 | 0.00 | 0.00 | 80 | 1008.7 |
| 20260505175046 | 77 | 149 | 4.0 | 7.0 | 0.00 | 0.00 | 0.00 | 82 | 1008.9 |
| 20260505174543 | 77 | 233 | 6.0 | 9.0 | 0.00 | 0.00 | 0.00 | 84 | 1008.9 |
| 20260505174039 | 77 | 242 | 6.0 | 10.0 | 0.00 | 0.00 | 0.00 | 83 | 1008.9 |
| 20260505173536 | 77 | 225 | 6.0 | 7.0 | 0.00 | 0.00 | 0.00 | 84 | 1008.7 |
| 20260505173033 | 77 | 168 | 6.0 | 10.0 | 0.00 | 0.00 | 0.00 | 83 | 1008.9 |
| 20260505172531 | 77 | 224 | 6.0 | 9.0 | 0.00 | 0.00 | 0.00 | 84 | 1008.9 |
| 20260505172027 | 76 | 224 | 6.0 | 9.0 | 0.00 | 0.00 | 0.00 | 86 | 1008.9 |
| 20260505171522 | 75 | 229 | 7.0 | 12.0 | 0.00 | 0.00 | 0.00 | 86 | 1009.1 |
| 20260505171019 | 75 | 208 | 11.0 | 14.0 | 0.00 | 0.00 | 0.00 | 87 | 1009.2 |
| 20260505170516 | 74 | 210 | 4.0 | 7.0 | 0.00 | 0.00 | 0.00 | 87 | 1009.3 |
| 20260505170012 | 74 | 236 | 7.0 | 9.0 | 0.00 | 0.00 | 0.00 | 87 | 1009.2 |
| 20260505165507 | 74 | 285 | 8.0 | 9.0 | 0.00 | 0.00 | 0.00 | 88 | 1009.0 |
| 20260505165004 | 74 | 259 | 7.0 | 10.0 | 0.00 | 0.00 | 0.00 | 88 | 1009.2 |
| 20260505164459 | 74 | 220 | 9.0 | 14.0 | 0.00 | 0.00 | 0.00 | 88 | 1009.3 |
| 20260505163958 | 74 | 203 | 2.0 | 3.0 | 0.00 | 0.00 | 0.00 | 88 | 1009.1 |
| 20260505163451 | 74 | 229 | 8.0 | 12.0 | 0.00 | 0.00 | 0.00 | 88 | 1009.2 |
| 20260505162950 | 74 | 196 | 6.0 | 9.0 | 0.00 | 0.00 | 0.00 | 88 | 1009.2 |
| 20260505162445 | 74 | 241 | 5.0 | 7.0 | 0.00 | 0.00 | 0.00 | 88 | 1009.3 |
| 20260505161942 | 74 | 220 | 6.0 | 7.0 | 0.00 | 0.00 | 0.00 | 88 | 1009.2 |
| 20260505161438 | 74 | 148 | 3.0 | 3.0 | 0.00 | 0.00 | 0.00 | 88 | 1009.1 |
| 20260505160935 | 74 | 247 | 8.0 | 10.0 | 0.00 | 0.00 | 0.00 | 87 | 1009.2 |
| 20260505160434 | 74 | 209 | 6.0 | 9.0 | 0.00 | 0.00 | 0.00 | 88 | 1009.2 |
| 20260505152910 | 73 | 200 | 5.0 | 7.0 | 0.00 | 0.00 | 0.00 | 88 | 1008.9 |
| 20260505152407 | 73 | 237 | 11.0 | 14.0 | 0.00 | 0.00 | 0.00 | 88 | 1009.1 |
| 20260505151907 | 73 | 229 | 7.0 | 15.0 | 0.00 | 0.00 | 0.00 | 88 | 1009.0 |
| 20260505151404 | 73 | 180 | 2.0 | 2.0 | 0.00 | 0.00 | 0.00 | 88 | 1009.1 |
| 20260505150901 | 73 | 202 | 5.0 | 5.0 | 0.00 | 0.00 | 0.00 | 88 | 1009.1 |
| 20260505150358 | 73 | 181 | 5.0 | 10.0 | 0.00 | 0.00 | 0.00 | 89 | 1009.2 |
| 20260505140322 | 72 | 230 | 7.0 | 9.0 | 0.00 | 0.00 | 0.00 | 90 | 1008.5 |
| 20260505130240 | 71 | 167 | 2.0 | 3.0 | 0.00 | 0.00 | 0.00 | 90 | 1008.5 |
| 20260505124731 | 71 | 220 | 4.0 | 7.0 | 0.00 | 0.00 | 0.00 | 89 | 1008.1 |
| 20260505124227 | 71 | 188 | 3.0 | 3.0 | 0.00 | 0.00 | 0.00 | 89 | 1008.3 |
| 20260505123723 | 71 | 176 | 8.0 | 10.0 | 0.00 | 0.00 | 0.00 | 88 | 1008.2 |
| 20260505123220 | 71 | 199 | 3.0 | 3.0 | 0.00 | 0.00 | 0.00 | 88 | 1008.0 |
| 20260505122716 | 71 | 166 | 1.0 | 2.0 | 0.00 | 0.00 | 0.00 | 89 | 1007.9 |
| 20260505122214 | 71 | 237 | 10.0 | 12.0 | 0.00 | 0.00 | 0.00 | 88 | 1007.8 |
| 20260505121710 | 71 | 234 | 7.0 | 10.0 | 0.00 | 0.00 | 0.00 | 88 | 1007.8 |
| 20260505121206 | 71 | 181 | 4.0 | 7.0 | 0.00 | 0.00 | 0.00 | 88 | 1007.6 |
| 20260505120703 | 71 | 155 | 4.0 | 5.0 | 0.00 | 0.00 | 0.00 | 88 | 1007.5 |
| 20260505120159 | 71 | 263 | 4.0 | 7.0 | 0.00 | 0.00 | 0.00 | 89 | 1007.5 |
| 20260505115658 | 71 | 204 | 6.0 | 10.0 | 0.00 | 0.00 | 0.00 | 88 | 1007.5 |
| 20260505115156 | 71 | 161 | 4.0 | 5.0 | 0.00 | 0.00 | 0.00 | 89 | 1007.6 |
| 20260505114654 | 71 | 175 | 5.0 | 7.0 | 0.00 | 0.00 | 0.00 | 89 | 1007.6 |
| 20260505114149 | 71 | 219 | 5.0 | 7.0 | 0.00 | 0.00 | 0.00 | 89 | 1007.4 |
| 20260505113646 | 70 | 212 | 3.0 | 9.0 | 0.00 | 0.00 | 0.00 | 89 | 1007.6 |
| 20260505113143 | 70 | 166 | 7.0 | 10.0 | 0.00 | 0.00 | 0.00 | 89 | 1007.5 |
| 20260505112639 | 70 | 165 | 4.0 | 5.0 | 0.00 | 0.00 | 0.00 | 89 | 1007.8 |
| 20260505112137 | 70 | 163 | 2.0 | 3.0 | 0.00 | 0.00 | 0.00 | 89 | 1007.3 |
| 20260505111637 | 70 | 191 | 3.0 | 5.0 | 0.00 | 0.00 | 0.00 | 89 | 1007.6 |
| 20260505111133 | 70 | 254 | 6.0 | 7.0 | 0.00 | 0.00 | 0.00 | 88 | 1007.7 |
| 20260505110629 | 70 | 194 | 3.0 | 5.0 | 0.00 | 0.00 | 0.00 | 88 | 1007.9 |
| 20260505110127 | 70 | 194 | 4.0 | 5.0 | 0.00 | 0.00 | 0.00 | 89 | 1007.9 |
| 20260505102102 | 70 | 219 | 6.0 | 7.0 | 0.00 | 0.00 | 0.00 | 88 | 1007.6 |
| 20260505101601 | 70 | 182 | 6.0 | 9.0 | 0.00 | 0.00 | 0.00 | 88 | 1007.5 |
| 20260505101056 | 70 | 239 | 8.0 | 10.0 | 0.00 | 0.00 | 0.00 | 88 | 1007.8 |
| 20260505100553 | 70 | 177 | 9.0 | 12.0 | 0.00 | 0.00 | 0.00 | 88 | 1007.7 |
| 20260505100050 | 70 | 184 | 4.0 | 9.0 | 0.00 | 0.00 | 0.00 | 88 | 1007.7 |
| 20260505095546 | 71 | 159 | 3.0 | 5.0 | 0.00 | 0.00 | 0.00 | 88 | 1008.0 |
| 20260505095043 | 71 | 161 | 2.0 | 3.0 | 0.00 | 0.00 | 0.00 | 88 | 1007.6 |
| 20260505094539 | 71 | 168 | 6.0 | 9.0 | 0.00 | 0.00 | 0.00 | 88 | 1007.8 |
| 20260505094036 | 71 | 207 | 2.0 | 3.0 | 0.00 | 0.00 | 0.00 | 88 | 1007.7 |
| 20260505093532 | 71 | 197 | 6.0 | 7.0 | 0.00 | 0.00 | 0.00 | 88 | 1007.6 |
| 20260505093030 | 71 | 133 | 4.0 | 5.0 | 0.00 | 0.00 | 0.00 | 88 | 1007.8 |
| 20260505092527 | 71 | 168 | 10.0 | 19.0 | 0.00 | 0.00 | 0.00 | 88 | 1007.9 |
| 20260505092025 | 71 | 199 | 8.0 | 12.0 | 0.00 | 0.00 | 0.00 | 87 | 1008.0 |
| 20260505091522 | 71 | 158 | 3.0 | 7.0 | 0.00 | 0.00 | 0.00 | 87 | 1008.1 |
| 20260505091020 | 71 | 236 | 6.0 | 9.0 | 0.00 | 0.00 | 0.00 | 87 | 1008.1 |
| 20260505090518 | 71 | 210 | 4.0 | 7.0 | 0.00 | 0.00 | 0.00 | 87 | 1008.0 |
| 20260505090015 | 71 | 178 | 3.0 | 5.0 | 0.00 | 0.00 | 0.00 | 88 | 1008.0 |
| 20260505085513 | 71 | 193 | 5.0 | 7.0 | 0.00 | 0.00 | 0.00 | 88 | 1007.8 |
| 20260505085011 | 71 | 189 | 4.0 | 5.0 | 0.00 | 0.00 | 0.00 | 88 | 1008.0 |
| 20260505084509 | 71 | 248 | 12.0 | 15.0 | 0.00 | 0.00 | 0.00 | 88 | 1008.0 |
| 20260505084007 | 71 | 241 | 4.0 | 5.0 | 0.00 | 0.00 | 0.00 | 88 | 1008.2 |
| 20260505083504 | 71 | 183 | 3.0 | 5.0 | 0.00 | 0.00 | 0.00 | 88 | 1008.1 |
| 20260505083000 | 71 | 204 | 4.0 | 7.0 | 0.00 | 0.00 | 0.00 | 88 | 1008.4 |
| 20260505082455 | 71 | 196 | 3.0 | 5.0 | 0.00 | 0.00 | 0.00 | 88 | 1008.3 |
| 20260505081953 | 71 | 221 | 7.0 | 10.0 | 0.00 | 0.00 | 0.00 | 87 | 1008.2 |
| 20260505081449 | 71 | 144 | 5.0 | 7.0 | 0.00 | 0.00 | 0.00 | 88 | 1008.5 |
| 20260505080946 | 71 | 188 | 8.0 | 10.0 | 0.00 | 0.00 | 0.00 | 87 | 1008.3 |
| 20260505080442 | 71 | 171 | 6.0 | 9.0 | 0.00 | 0.00 | 0.00 | 88 | 1008.4 |
| 20260505075938 | 71 | 159 | 2.0 | 2.0 | 0.00 | 0.00 | 0.00 | 88 | 1008.4 |
| 20260505075435 | 71 | 222 | 4.0 | 5.0 | 0.00 | 0.00 | 0.00 | 88 | 1008.8 |
| 20260505074932 | 70 | 212 | 7.0 | 10.0 | 0.00 | 0.00 | 0.00 | 88 | 1009.0 |
| 20260505074430 | 70 | 210 | 7.0 | 12.0 | 0.00 | 0.00 | 0.00 | 88 | 1008.6 |
| 20260505073926 | 71 | 161 | 2.0 | 2.0 | 0.00 | 0.00 | 0.00 | 87 | 1008.8 |
| 20260505073424 | 71 | 193 | 6.0 | 7.0 | 0.00 | 0.00 | 0.00 | 87 | 1008.9 |
| 20260505072921 | 71 | 175 | 4.0 | 7.0 | 0.00 | 0.00 | 0.00 | 87 | 1008.9 |
| 20260505072417 | 70 | 182 | 7.0 | 10.0 | 0.00 | 0.00 | 0.00 | 87 | 1009.0 |
| 20260505071913 | 70 | 180 | 2.0 | 3.0 | 0.00 | 0.00 | 0.00 | 87 | 1009.0 |
| 20260505071410 | 70 | 169 | 7.0 | 10.0 | 0.00 | 0.00 | 0.00 | 87 | 1009.3 |
| 20260505070908 | 70 | 161 | 3.0 | 5.0 | 0.00 | 0.00 | 0.00 | 87 | 1009.1 |
| 20260505070404 | 71 | 179 | 4.0 | 7.0 | 0.00 | 0.00 | 0.00 | 87 | 1009.2 |
| 20260505065900 | 70 | 170 | 6.0 | 10.0 | 0.00 | 0.00 | 0.00 | 87 | 1009.2 |
| 20260505065356 | 70 | 166 | 3.0 | 5.0 | 0.00 | 0.00 | 0.00 | 87 | 1009.2 |
| 20260505064853 | 70 | 180 | 7.0 | 10.0 | 0.00 | 0.00 | 0.00 | 87 | 1009.3 |
| 20260505064350 | 70 | 219 | 7.0 | 14.0 | 0.00 | 0.00 | 0.00 | 87 | 1009.3 |
| 20260505063849 | 70 | 149 | 2.0 | 3.0 | 0.00 | 0.00 | 0.00 | 87 | 1009.5 |
| 20260505063344 | 70 | 122 | 2.0 | 3.0 | 0.00 | 0.00 | 0.00 | 87 | 1009.7 |
| 20260505062841 | 71 | 177 | 3.0 | 5.0 | 0.00 | 0.00 | 0.00 | 87 | 1009.5 |
| 20260505062339 | 71 | 191 | 6.0 | 7.0 | 0.00 | 0.00 | 0.00 | 86 | 1009.7 |
| 20260505061835 | 71 | 192 | 8.0 | 10.0 | 0.00 | 0.00 | 0.00 | 86 | 1009.7 |
| 20260505061333 | 71 | 173 | 6.0 | 7.0 | 0.00 | 0.00 | 0.00 | 86 | 1009.6 |
| 20260505060831 | 71 | 159 | 5.0 | 7.0 | 0.00 | 0.00 | 0.00 | 86 | 1009.5 |
| 20260505060327 | 71 | 186 | 4.0 | 5.0 | 0.00 | 0.00 | 0.00 | 86 | 1009.6 |
| 20260505055823 | 71 | 200 | 11.0 | 21.0 | 0.00 | 0.00 | 0.00 | 86 | 1009.5 |
| 20260505055319 | 71 | 194 | 5.0 | 7.0 | 0.00 | 0.00 | 0.00 | 86 | 1009.8 |
| 20260505054817 | 71 | 152 | 2.0 | 3.0 | 0.00 | 0.00 | 0.00 | 86 | 1009.6 |
| 20260505054314 | 71 | 203 | 7.0 | 9.0 | 0.00 | 0.00 | 0.00 | 86 | 1009.7 |
| 20260505053812 | 71 | 175 | 3.0 | 3.0 | 0.00 | 0.00 | 0.00 | 86 | 1009.5 |
| 20260505053309 | 71 | 178 | 1.0 | 2.0 | 0.00 | 0.00 | 0.00 | 86 | 1009.6 |
| 20260505052806 | 71 | 155 | 6.0 | 9.0 | 0.00 | 0.00 | 0.00 | 86 | 1009.4 |
| 20260505052304 | 71 | 173 | 1.0 | 2.0 | 0.00 | 0.00 | 0.00 | 86 | 1009.4 |
| 20260505051800 | 71 | 158 | 4.0 | 5.0 | 0.00 | 0.00 | 0.00 | 86 | 1009.4 |
| 20260505051257 | 71 | 178 | 2.0 | 3.0 | 0.00 | 0.00 | 0.00 | 85 | 1009.3 |
| 20260505050755 | 71 | 169 | 4.0 | 5.0 | 0.00 | 0.00 | 0.00 | 84 | 1009.6 |
| 20260505050254 | 71 | 151 | 2.0 | 3.0 | 0.00 | 0.00 | 0.00 | 85 | 1009.3 |
| 20260505041723 | 73 | 175 | 7.0 | 10.0 | 0.00 | 0.00 | 0.00 | 82 | 1009.4 |
| 20260505041220 | 73 | 144 | 11.0 | 15.0 | 0.00 | 0.00 | 0.00 | 82 | 1009.3 |
| 20260505040718 | 73 | 181 | 7.0 | 9.0 | 0.00 | 0.00 | 0.00 | 82 | 1009.5 |
| 20260505040215 | 73 | 192 | 9.0 | 15.0 | 0.00 | 0.00 | 0.00 | 82 | 1009.4 |
| 20260505035712 | 73 | 155 | 0.0 | 0.0 | 0.00 | 0.00 | 0.00 | 82 | 1009.3 |
| 20260505035208 | 73 | 186 | 6.0 | 7.0 | 0.00 | 0.00 | 0.00 | 82 | 1009.3 |
| 20260505034704 | 73 | 155 | 0.0 | 2.0 | 0.00 | 0.00 | 0.00 | 81 | 1009.6 |
| 20260505034202 | 73 | 152 | 4.0 | 9.0 | 0.00 | 0.00 | 0.00 | 81 | 1009.5 |
| 20260505033657 | 73 | 185 | 4.0 | 7.0 | 0.00 | 0.00 | 0.00 | 81 | 1009.5 |
| 20260505033156 | 73 | 230 | 9.0 | 12.0 | 0.00 | 0.00 | 0.00 | 80 | 1009.6 |
| 20260505032654 | 73 | 146 | 4.0 | 5.0 | 0.00 | 0.00 | 0.00 | 81 | 1009.4 |
| 20260505032149 | 73 | 174 | 5.0 | 9.0 | 0.00 | 0.00 | 0.00 | 80 | 1009.6 |
| 20260505031647 | 73 | 172 | 4.0 | 5.0 | 0.00 | 0.00 | 0.00 | 80 | 1009.3 |
| 20260505031143 | 73 | 202 | 6.0 | 9.0 | 0.00 | 0.00 | 0.00 | 80 | 1009.3 |
| 20260505030640 | 73 | 162 | 3.0 | 7.0 | 0.00 | 0.00 | 0.00 | 80 | 1009.3 |
| 20260505030136 | 74 | 179 | 3.0 | 3.0 | 0.00 | 0.00 | 0.00 | 79 | 1009.5 |
| 20260505025632 | 74 | 157 | 9.0 | 12.0 | 0.00 | 0.00 | 0.00 | 79 | 1009.7 |
| 20260505025131 | 74 | 160 | 1.0 | 2.0 | 0.00 | 0.00 | 0.00 | 79 | 1009.7 |
| 20260505024628 | 74 | 142 | 4.0 | 7.0 | 0.00 | 0.00 | 0.00 | 79 | 1009.3 |
| 20260505024125 | 74 | 170 | 5.0 | 9.0 | 0.00 | 0.00 | 0.00 | 78 | 1009.2 |
| 20260505023622 | 74 | 173 | 2.0 | 3.0 | 0.00 | 0.00 | 0.00 | 78 | 1009.3 |
| 20260505023120 | 74 | 146 | 7.0 | 9.0 | 0.00 | 0.00 | 0.00 | 77 | 1009.2 |
| 20260505022617 | 74 | 161 | 5.0 | 9.0 | 0.00 | 0.00 | 0.00 | 77 | 1009.3 |
| 20260505022114 | 74 | 151 | 4.0 | 7.0 | 0.00 | 0.00 | 0.00 | 77 | 1009.0 |
| 20260505021610 | 75 | 184 | 2.0 | 3.0 | 0.00 | 0.00 | 0.00 | 76 | 1009.1 |
| 20260505021107 | 75 | 145 | 5.0 | 5.0 | 0.00 | 0.00 | 0.00 | 76 | 1009.0 |
| 20260505020603 | 75 | 163 | 3.0 | 7.0 | 0.00 | 0.00 | 0.00 | 75 | 1008.8 |
| 20260505020059 | 75 | 181 | 4.0 | 7.0 | 0.00 | 0.00 | 0.00 | 75 | 1009.1 |
| 20260505015556 | 75 | 184 | 3.0 | 5.0 | 0.00 | 0.00 | 0.00 | 74 | 1008.8 |
| 20260505015053 | 75 | 155 | 2.0 | 2.0 | 0.00 | 0.00 | 0.00 | 74 | 1008.8 |
| 20260505014550 | 75 | 191 | 7.0 | 9.0 | 0.00 | 0.00 | 0.00 | 73 | 1008.8 |
| 20260505014047 | 76 | 193 | 5.0 | 7.0 | 0.00 | 0.00 | 0.00 | 73 | 1008.8 |
| 20260505013544 | 76 | 165 | 2.0 | 3.0 | 0.00 | 0.00 | 0.00 | 72 | 1008.9 |
| 20260505013041 | 76 | 155 | 2.0 | 3.0 | 0.00 | 0.00 | 0.00 | 72 | 1009.0 |
| 20260505012539 | 76 | 154 | 0.0 | 2.0 | 0.00 | 0.00 | 0.00 | 72 | 1009.0 |
| 20260505012036 | 76 | 161 | 2.0 | 3.0 | 0.00 | 0.00 | 0.00 | 72 | 1008.9 |
| 20260505011536 | 76 | 188 | 2.0 | 3.0 | 0.00 | 0.00 | 0.00 | 71 | 1008.9 |
| 20260505011034 | 76 | 164 | 2.0 | 2.0 | 0.00 | 0.00 | 0.00 | 71 | 1008.9 |
| 20260505010529 | 77 | 174 | 2.0 | 3.0 | 0.00 | 0.00 | 0.00 | 71 | 1008.9 |
| 20260505010026 | 77 | 236 | 6.0 | 10.0 | 0.00 | 0.00 | 0.00 | 70 | 1008.9 |
| 20260505005522 | 77 | 163 | 5.0 | 7.0 | 0.00 | 0.00 | 0.00 | 70 | 1008.7 |
| 20260505005020 | 78 | 155 | 3.0 | 5.0 | 0.00 | 0.00 | 0.00 | 70 | 1009.0 |
| 20260505004517 | 78 | 165 | 2.0 | 3.0 | 0.00 | 0.00 | 0.00 | 69 | 1008.8 |
| 20260505004014 | 78 | 160 | 4.0 | 7.0 | 0.00 | 0.00 | 0.00 | 69 | 1009.0 |
| 20260505003511 | 78 | 159 | 5.0 | 7.0 | 0.00 | 0.00 | 0.00 | 68 | 1008.7 |
| 20260505003008 | 78 | 193 | 3.0 | 5.0 | 0.00 | 0.00 | 0.00 | 68 | 1008.8 |
| 20260505002503 | 78 | 190 | 8.0 | 10.0 | 0.00 | 0.00 | 0.00 | 67 | 1008.6 |
| 20260505002002 | 79 | 178 | 7.0 | 9.0 | 0.00 | 0.00 | 0.00 | 67 | 1008.8 |
| 20260505001459 | 79 | 188 | 4.0 | 10.0 | 0.00 | 0.00 | 0.00 | 67 | 1008.7 |
| 20260505000955 | 79 | 179 | 7.0 | 9.0 | 0.00 | 0.00 | 0.00 | 66 | 1008.7 |
| 20260505000454 | 80 | 155 | 10.0 | 12.0 | 0.00 | 0.00 | 0.00 | 65 | 1009.0 |
| 20260504235950 | 80 | 188 | 4.0 | 7.0 | 0.00 | 0.00 | 0.00 | 66 | 1009.0 |
| 20260504235448 | 80 | 162 | 3.0 | 5.0 | 0.00 | 0.00 | 0.00 | 65 | 1009.0 |
| 20260504234944 | 80 | 143 | 4.0 | 5.0 | 0.00 | 0.00 | 0.00 | 65 | 1009.2 |
| 20260504234441 | 80 | 131 | 6.0 | 9.0 | 0.00 | 0.00 | 0.00 | 65 | 1009.3 |
| 20260504233938 | 80 | 224 | 7.0 | 10.0 | 0.00 | 0.00 | 0.00 | 64 | 1009.2 |
| 20260504233433 | 80 | 122 | 3.0 | 3.0 | 0.00 | 0.00 | 0.00 | 64 | 1009.2 |
| 20260504232931 | 80 | 217 | 6.0 | 9.0 | 0.00 | 0.00 | 0.00 | 64 | 1009.4 |
| 20260504232428 | 81 | 189 | 9.0 | 15.0 | 0.00 | 0.00 | 0.00 | 64 | 1009.4 |
| 20260504231925 | 81 | 197 | 6.0 | 7.0 | 0.00 | 0.00 | 0.00 | 63 | 1009.2 |
| 20260504231421 | 80 | 173 | 6.0 | 9.0 | 0.00 | 0.00 | 0.00 | 64 | 1009.2 |
| 20260504230917 | 80 | 196 | 11.0 | 14.0 | 0.00 | 0.00 | 0.00 | 63 | 1009.4 |
| 20260504230415 | 80 | 209 | 8.0 | 10.0 | 0.00 | 0.00 | 0.00 | 64 | 1009.2 |
| 20260504225913 | 81 | 228 | 10.0 | 15.0 | 0.00 | 0.00 | 0.00 | 62 | 1009.4 |
| 20260504225410 | 81 | 180 | 4.0 | 5.0 | 0.00 | 0.00 | 0.00 | 63 | 1009.4 |
| 20260504224907 | 81 | 187 | 8.0 | 10.0 | 0.00 | 0.00 | 0.00 | 62 | 1009.6 |
| 20260504224403 | 81 | 161 | 3.0 | 3.0 | 0.00 | 0.00 | 0.00 | 65 | 1009.5 |
| 20260504223901 | 81 | 181 | 7.0 | 9.0 | 0.00 | 0.00 | 0.00 | 64 | 1009.6 |
| 20260504223356 | 81 | 193 | 7.0 | 10.0 | 0.00 | 0.00 | 0.00 | 63 | 1009.9 |
| 20260504222852 | 81 | 215 | 7.0 | 9.0 | 0.00 | 0.00 | 0.00 | 62 | 1009.8 |
| 20260504222349 | 81 | 180 | 7.0 | 12.0 | 0.00 | 0.00 | 0.00 | 62 | 1009.8 |
| 20260504221848 | 82 | 154 | 6.0 | 7.0 | 0.00 | 0.00 | 0.00 | 61 | 1009.7 |
| 20260504221344 | 81 | 203 | 5.0 | 5.0 | 0.00 | 0.00 | 0.00 | 63 | 1009.8 |
| 20260504220842 | 82 | 221 | 5.0 | 5.0 | 0.00 | 0.00 | 0.00 | 62 | 1009.8 |
| 20260504220338 | 82 | 186 | 9.0 | 12.0 | 0.00 | 0.00 | 0.00 | 61 | 1009.8 |
| 20260504215835 | 81 | 165 | 3.0 | 3.0 | 0.00 | 0.00 | 0.00 | 63 | 1009.9 |
| 20260504215331 | 82 | 204 | 6.0 | 9.0 | 0.00 | 0.00 | 0.00 | 61 | 1009.8 |
| 20260504214828 | 81 | 197 | 10.0 | 14.0 | 0.00 | 0.00 | 0.00 | 61 | 1009.8 |
| 20260504214325 | 81 | 147 | 9.0 | 14.0 | 0.00 | 0.00 | 0.00 | 60 | 1009.9 |
| 20260504213821 | 81 | 223 | 10.0 | 14.0 | 0.00 | 0.00 | 0.00 | 62 | 1010.2 |
| 20260504213317 | 81 | 220 | 7.0 | 10.0 | 0.00 | 0.00 | 0.00 | 62 | 1010.3 |
| 20260504212815 | 82 | 124 | 8.0 | 15.0 | 0.00 | 0.00 | 0.00 | 63 | 1010.4 |
| 20260504212311 | 82 | 256 | 6.0 | 10.0 | 0.00 | 0.00 | 0.00 | 60 | 1010.5 |
| 20260504211809 | 80 | 158 | 7.0 | 9.0 | 0.00 | 0.00 | 0.00 | 62 | 1010.5 |
| 20260504211304 | 80 | 135 | 9.0 | 10.0 | 0.00 | 0.00 | 0.00 | 62 | 1010.5 |
| 20260504210802 | 81 | 163 | 2.0 | 3.0 | 0.00 | 0.00 | 0.00 | 64 | 1010.7 |
| 20260504210259 | 81 | 202 | 7.0 | 10.0 | 0.00 | 0.00 | 0.00 | 61 | 1010.8 |
| 20260504205756 | 81 | 164 | 2.0 | 3.0 | 0.00 | 0.00 | 0.00 | 64 | 1010.9 |
| 20260504205254 | 81 | 183 | 5.0 | 5.0 | 0.00 | 0.00 | 0.00 | 62 | 1011.0 |
| 20260504204752 | 81 | 200 | 5.0 | 7.0 | 0.00 | 0.00 | 0.00 | 63 | 1011.2 |
| 20260504204250 | 81 | 188 | 7.0 | 10.0 | 0.00 | 0.00 | 0.00 | 63 | 1011.4 |
| 20260504203749 | 81 | 180 | 6.0 | 9.0 | 0.00 | 0.00 | 0.00 | 64 | 1011.3 |
| 20260504203246 | 81 | 134 | 9.0 | 14.0 | 0.00 | 0.00 | 0.00 | 61 | 1011.5 |
| 20260504202741 | 81 | 183 | 4.0 | 7.0 | 0.00 | 0.00 | 0.00 | 64 | 1011.6 |
| 20260504202239 | 81 | 170 | 6.0 | 12.0 | 0.00 | 0.00 | 0.00 | 61 | 1011.8 |
| 20260504201736 | 80 | 172 | 9.0 | 12.0 | 0.00 | 0.00 | 0.00 | 63 | 1011.8 |
| 20260504201233 | 80 | 209 | 7.0 | 14.0 | 0.00 | 0.00 | 0.00 | 64 | 1011.8 |
| 20260504200731 | 79 | 253 | 6.0 | 9.0 | 0.00 | 0.00 | 0.00 | 64 | 1012.1 |
| 20260504200226 | 80 | 179 | 8.0 | 10.0 | 0.00 | 0.00 | 0.00 | 62 | 1012.1 |
| 20260504195723 | 80 | 190 | 6.0 | 9.0 | 0.00 | 0.00 | 0.00 | 64 | 1012.4 |
| 20260504195219 | 79 | 165 | 6.0 | 7.0 | 0.00 | 0.00 | 0.00 | 65 | 1012.4 |
| 20260504194716 | 79 | 208 | 4.0 | 5.0 | 0.00 | 0.00 | 0.00 | 65 | 1012.4 |
| 20260504194212 | 78 | 204 | 5.0 | 7.0 | 0.00 | 0.00 | 0.00 | 65 | 1012.5 |
| 20260504193709 | 79 | 172 | 3.0 | 5.0 | 0.00 | 0.00 | 0.00 | 67 | 1012.6 |
| 20260504193206 | 79 | 147 | 6.0 | 9.0 | 0.00 | 0.00 | 0.00 | 64 | 1012.8 |
| 20260504192704 | 81 | 241 | 7.0 | 9.0 | 0.00 | 0.00 | 0.00 | 63 | 1012.6 |